Location: Bothwell
(41.7170°N, 112.2589°W)
Time: 04:41:36
(UTC+00:00)

Vanguard 2 - Visible Passes

Search period start: 10 May 2026 00:00
Search period end: 20 May 2026 00:00
Orbit: 554 x 2895 km, 32.9° (Epoch: 9 May)

Date Brightness Start Highest point End Pass type
(mag) Time Alt. Az. Time Alt. Az. Time Alt. Az.
10 May 11.5 07:29:24 14° SE 07:29:24 14° SE 07:34:38 10° ESE visible
10 May 10.8 09:30:16 26° S 09:37:23 35° SSE 09:49:50 10° E visible
10 May 10.3 11:31:45 10° WSW 11:47:53 53° S 11:59:12 10° E visible
11 May 11.2 07:39:42 19° SE 07:39:42 19° SE 07:48:48 10° ESE visible
11 May 10.6 09:40:34 27° SSW 09:48:50 41° SSE 10:01:50 10° E visible
11 May 10.2 11:43:09 10° WSW 11:59:30 57° S 12:10:55 10° E visible
12 May 11.0 07:49:56 24° SE 07:50:09 24° SE 08:01:53 10° E visible
12 May 10.5 09:50:47 27° SSW 10:00:19 46° SSE 10:13:42 10° E visible
13 May 10.8 08:00:04 29° SSE 08:01:24 29° SE 08:14:26 10° E visible
13 May 10.4 10:00:55 25° SW 10:11:49 51° SSE 10:25:30 10° E visible
14 May 10.7 08:10:09 33° SSE 08:12:41 35° SSE 08:26:39 10° E visible
14 May 10.4 10:10:59 22° SW 10:23:23 55° SSE 10:37:15 10° E visible
15 May 11.4 06:19:19 15° ESE 06:19:19 15° ESE 06:23:42 10° ESE visible
15 May 10.5 08:20:08 37° S 08:24:00 40° SSE 08:38:40 10° E visible
15 May 10.3 10:20:58 18° WSW 10:34:56 59° S 10:48:56 10° E visible
16 May 11.2 06:29:13 20° ESE 06:29:13 20° ESE 06:37:06 10° E visible
16 May 10.4 08:30:02 38° S 08:35:20 45° SSE 08:50:34 10° E visible
16 May 10.3 10:30:52 14° WSW 10:46:31 61° S 11:00:35 10° E visible
17 May 10.9 06:39:02 26° SE 06:39:02 26° SE 06:49:48 10° E visible
17 May 10.4 08:39:51 37° SSW 08:46:46 50° SSE 09:02:22 10° E visible
17 May 10.3 10:40:49 10° WSW 10:58:06 62° S 11:12:13 10° ESE visible
18 May 10.7 06:48:44 32° SE 06:48:44 32° SE 07:02:08 10° E visible
18 May 10.3 08:49:32 33° SW 08:58:13 55° SSE 09:14:07 10° E visible
18 May 10.3 10:52:24 10° WSW 11:09:41 62° S 11:23:47 10° ESE visible
19 May 10.4 06:58:17 37° SSE 06:59:05 37° SSE 07:14:13 10° E visible
19 May 10.3 08:59:04 27° SW 09:09:43 59° SSE 09:25:48 10° E visible
19 May 10.3 11:04:01 10° W 11:21:15 61° S 11:35:19 10° ESE visible
